DW8946 Weather Reports


time (UTC)temp
F
wind
direction
speed
knots
gust
knots
rain 1hr
in
rain 24hr
in
rain mn
in
humidity
%
barometer
mb
20260505124805 53 240 0.9 1.7 0.00 0.00 0.00 99 1019.9
20260505124302 53 263 0.0 2.6 0.00 0.00 0.00 99 1020.0
20260505123758 52 294 0.9 2.6 0.00 0.00 0.00 99 1020.0
20260505123255 52 315 1.7 3.5 0.00 0.00 0.00 99 1020.0
20260505122751 52 259 1.7 2.6 0.00 0.00 0.00 99 1020.1
20260505122249 53 257 0.0 2.6 0.00 0.00 0.00 99 1019.9
20260505121745 53 266 1.7 2.6 0.00 0.00 0.00 99 1020.0
20260505121242 53 270 0.0 3.5 0.00 0.00 0.00 99 1019.9
20260505120738 53 228 1.7 2.6 0.00 0.00 0.00 99 1020.1
20260505120234 53 180 0.0 1.7 0.00 0.00 0.00 99 1019.8
20260505115733 53 270 0.0 1.7 0.00 0.00 0.00 99 1019.9
20260505115231 53 187 0.0 0.9 0.00 0.00 0.00 99 1019.8
20260505114728 53 186 0.0 2.6 0.00 0.00 0.00 99 1019.7
20260505114224 53 243 0.0 1.7 0.00 0.00 0.00 98 1019.7
20260505113721 53 41 1.7 1.7 0.00 0.00 0.00 98 1019.7
20260505113217 53 15 0.0 1.7 0.00 0.00 0.00 98 1020.1
20260505112714 53 278 1.7 2.6 0.00 0.00 0.00 97 1019.9
20260505112211 53 90 0.0 1.7 0.00 0.00 0.00 97 1019.6
20260505111706 54 276 0.9 2.6 0.00 0.00 0.00 95 1019.6
20260505111201 54 15 0.0 0.9 0.00 0.00 0.00 94 1019.9
20260505110658 54 82 0.0 0.9 0.00 0.00 0.00 93 1019.8
20260505110155 54 345 0.0 0.9 0.00 0.00 0.00 93 1019.6
20260505102131 53 29 0.9 1.7 0.00 0.00 0.00 93 1019.3
20260505101630 54 5 0.0 1.7 0.00 0.00 0.00 93 1019.3
20260505101126 54 6 0.0 2.6 0.00 0.00 0.00 93 1019.3
20260505100622 54 0 0.9 2.6 0.00 0.00 0.00 93 1019.3
20260505100119 54 240 1.7 2.6 0.00 0.00 0.00 93 1019.5
20260505095615 54 105 0.0 0.9 0.00 0.00 0.00 94 1019.5
20260505095112 53 246 0.0 1.7 0.00 0.00 0.00 94 1019.3
20260505094608 53 82 0.9 1.7 0.00 0.00 0.00 94 1019.3
20260505094104 53 319 0.0 1.7 0.00 0.00 0.00 93 1019.3
20260505093601 53 41 1.7 1.7 0.00 0.00 0.00 94 1019.3
20260505093058 54 0 1.7 2.6 0.00 0.00 0.00 94 1019.3
20260505092555 53 215 0.9 1.7 0.00 0.00 0.00 94 1019.2
20260505092054 53 90 0.9 1.7 0.00 0.00 0.00 94 1018.8
20260505091550 53 319 1.7 2.6 0.00 0.00 0.00 94 1018.9
20260505091049 53 270 0.0 1.7 0.00 0.00 0.00 94 1018.8
20260505090546 53 328 0.0 2.6 0.00 0.00 0.00 94 1018.7
20260505090044 53 337 0.9 1.7 0.00 0.00 0.00 95 1018.6
20260505085542 53 66 0.0 1.7 0.00 0.00 0.00 94 1018.8
20260505085040 53 96 0.0 2.6 0.00 0.00 0.00 94 1018.4
20260505084537 53 131 0.0 1.7 0.00 0.00 0.00 95 1018.4
20260505084035 53 29 0.0 1.7 0.00 0.00 0.00 95 1018.3
20260505083532 53 75 0.0 2.6 0.00 0.00 0.00 95 1018.2
20260505083029 53 63 1.7 2.6 0.00 0.00 0.00 95 1018.0
20260505082524 53 0 0.0 0.9 0.00 0.00 0.00 95 1018.0
20260505082021 53 68 1.7 1.7 0.00 0.00 0.00 95 1018.0
20260505081518 53 54 0.0 0.9 0.00 0.00 0.00 94 1018.0
20260505081015 53 340 0.0 1.7 0.00 0.00 0.00 94 1018.2
20260505080511 53 291 0.9 1.7 0.00 0.00 0.00 94 1018.3
20260505080008 53 195 0.9 3.5 0.00 0.00 0.00 94 1018.3
20260505075504 53 0 0.0 2.6 0.00 0.00 0.00 94 1018.6
20260505075001 53 157 0.9 1.7 0.00 0.00 0.00 94 1018.4
20260505074458 53 70 1.7 1.7 0.00 0.00 0.00 94 1018.4
20260505073955 53 90 0.0 0.9 0.00 0.00 0.00 94 1018.3
20260505073453 53 15 0.0 0.9 0.00 0.00 0.00 94 1018.2
20260505072950 53 261 0.0 1.7 0.00 0.00 0.00 93 1018.3
20260505072446 53 320 0.0 2.6 0.00 0.00 0.00 93 1018.1
20260505071942 53 128 1.7 2.6 0.00 0.00 0.00 93 1017.9
20260505071438 53 228 1.7 3.5 0.00 0.00 0.00 93 1018.0
20260505070937 53 139 0.0 2.6 0.00 0.00 0.00 92 1017.8
20260505070433 53 32 0.0 2.6 0.00 0.00 0.00 92 1017.7
20260505065929 53 14 1.7 2.6 0.00 0.00 0.00 92 1017.6
20260505065425 54 83 0.9 3.5 0.00 0.00 0.00 92 1017.6
20260505064922 54 56 1.7 1.7 0.00 0.00 0.00 91 1017.5
20260505064419 54 292 8.7 8.7 0.00 0.00 0.00 91 1017.5
20260505063918 54 82 1.7 4.3 0.00 0.00 0.00 91 1017.3
20260505063413 54 194 0.9 3.5 0.00 0.00 0.00 90 1017.2
20260505062910 54 199 2.6 5.2 0.00 0.00 0.00 90 1017.3
20260505062408 54 268 3.5 5.2 0.00 0.00 0.00 90 1017.2
20260505061904 54 175 0.9 5.2 0.00 0.00 0.00 89 1017.2
20260505061403 55 284 3.5 4.3 0.00 0.00 0.00 89 1017.2
20260505060859 55 289 1.7 9.6 0.00 0.00 0.00 88 1016.9
20260505060356 56 244 4.3 4.3 0.00 0.00 0.00 87 1017.4
20260505055852 56 180 0.9 7.0 0.00 0.00 0.00 86 1016.9
20260505055348 56 238 6.1 6.1 0.00 0.00 0.00 85 1016.9
20260505054846 57 260 2.6 6.1 0.00 0.00 0.00 85 1016.9
20260505054343 57 229 1.7 5.2 0.00 0.00 0.00 84 1016.9
20260505053841 57 270 0.0 6.1 0.00 0.00 0.00 83 1016.9
20260505053338 58 247 2.6 6.1 0.00 0.00 0.00 82 1016.8
20260505052834 58 247 4.3 4.3 0.00 0.00 0.00 82 1016.9
20260505052331 58 236 1.7 2.6 0.00 0.00 0.00 82 1017.2
20260505051828 59 240 0.0 1.7 0.00 0.00 0.00 81 1016.9
20260505051326 59 220 1.7 1.7 0.00 0.00 0.00 80 1016.9
20260505050824 59 270 0.0 2.6 0.00 0.00 0.00 79 1016.9
20260505050322 59 245 1.7 2.6 0.00 0.00 0.00 79 1016.8
20260505041752 62 161 1.7 4.3 0.00 0.00 0.00 74 1016.3
20260505041249 63 356 3.5 3.5 0.00 0.00 0.00 73 1016.4
20260505040747 63 35 0.9 4.3 0.00 0.00 0.00 73 1016.3
20260505040244 63 178 0.0 6.1 0.00 0.00 0.00 72 1016.2
20260505035741 64 270 1.7 3.5 0.00 0.00 0.00 72 1016.1
20260505035236 64 348 0.0 6.1 0.00 0.00 0.00 71 1015.7
20260505034733 64 348 0.9 6.1 0.00 0.00 0.00 70 1015.9
20260505034230 65 336 1.7 7.0 0.00 0.00 0.00 70 1015.9
20260505033727 65 342 0.0 4.3 0.00 0.00 0.00 70 1015.9
20260505033225 66 14 0.0 2.6 0.00 0.00 0.00 69 1015.6
20260505032723 66 5 1.7 6.1 0.00 0.00 0.00 68 1015.7
20260505032218 66 305 2.6 4.3 0.00 0.00 0.00 68 1015.8
20260505031716 66 281 2.6 6.1 0.00 0.00 0.00 67 1015.7
20260505031212 67 7 4.3 4.3 0.00 0.00 0.00 67 1015.6
20260505030709 67 291 0.9 6.1 0.00 0.00 0.00 66 1015.6
20260505030205 68 300 4.3 4.3 0.00 0.00 0.00 65 1015.2
20260505025701 68 339 1.7 4.3 0.00 0.00 0.00 65 1015.2
20260505025159 69 305 2.6 6.1 0.00 0.00 0.00 63 1015.2
20260505024657 70 326 5.2 7.8 0.00 0.00 0.00 61 1015.2
20260505024154 71 283 0.9 7.8 0.00 0.00 0.00 61 1014.8
20260505023651 73 66 0.0 3.5 0.00 0.00 0.00 60 1014.8
20260505023149 73 306 0.0 2.6 0.00 0.00 0.00 59 1014.7
20260505022646 74 7 0.9 2.6 0.00 0.00 0.00 60 1014.7
20260505022143 74 297 3.5 7.8 0.00 0.00 0.00 59 1014.9
20260505021639 76 315 1.7 3.5 0.00 0.00 0.00 60 1014.7
20260505021136 75 348 0.0 3.5 0.00 0.00 0.00 61 1014.7
20260505020632 75 259 3.5 5.2 0.00 0.00 0.00 61 1014.8
20260505020128 76 280 0.0 5.2 0.00 0.00 0.00 59 1014.7
20260505015626 77 341 1.7 2.6 0.00 0.00 0.00 57 1014.7
20260505015122 76 297 0.0 3.5 0.00 0.00 0.00 59 1014.6
20260505014619 77 36 1.7 4.3 0.00 0.00 0.00 57 1014.7
20260505014116 76 312 1.7 4.3 0.00 0.00 0.00 59 1014.8
20260505013613 76 5 2.6 3.5 0.00 0.00 0.00 57 1015.3
20260505013110 76 248 2.6 5.2 0.00 0.00 0.00 59 1014.9
20260505012609 76 230 3.5 5.2 0.00 0.00 0.00 59 1015.1
20260505012105 78 281 1.7 2.6 0.00 0.00 0.00 57 1015.2
20260505011600 76 270 1.7 5.2 0.00 0.00 0.00 59 1015.5
20260505011058 75 267 3.5 5.2 0.00 0.00 0.00 58 1015.8
20260505010553 77 231 2.6 3.5 0.00 0.00 0.00 57 1015.6
20260505010050 76 275 1.7 4.3 0.00 0.00 0.00 57 1015.5
20260505005546 77 195 0.9 3.5 0.00 0.00 0.00 56 1015.5
20260505005044 76 290 1.7 5.2 0.00 0.00 0.00 59 1015.5
20260505004541 76 90 0.0 6.1 0.00 0.00 0.00 58 1015.5
20260505004038 77 186 4.3 5.2 0.00 0.00 0.00 57 1015.5
20260505003535 76 255 0.9 6.1 0.00 0.00 0.00 57 1015.9
20260505003032 75 152 2.6 5.2 0.00 0.00 0.00 58 1015.9
20260505002526 76 277 0.9 5.2 0.00 0.00 0.00 57 1016.0
20260505002026 76 263 0.9 5.2 0.00 0.00 0.00 57 1015.8
20260505001523 76 188 3.5 6.1 0.00 0.00 0.00 57 1015.9
20260505001020 77 270 1.7 3.5 0.00 0.00 0.00 56 1016.1
20260505000517 76 189 2.6 5.2 0.00 0.00 0.00 56 1016.0
20260505000015 76 234 0.0 4.3 0.00 0.00 0.00 57 1016.0
20260504235511 75 225 2.6 7.8 0.00 0.00 0.00 59 1016.2
20260504235008 76 253 3.5 3.5 0.00 0.00 0.00 57 1016.1
20260504234505 76 117 0.0 4.3 0.00 0.00 0.00 58 1016.0
20260504234002 76 99 0.0 4.3 0.00 0.00 0.00 57 1016.2
20260504233457 76 165 0.0 3.5 0.00 0.00 0.00 57 1016.5
20260504232954 74 258 6.1 7.0 0.00 0.00 0.00 59 1016.2
20260504232451 73 4 1.7 4.3 0.00 0.00 0.00 60 1016.3
20260504231949 74 281 2.6 6.1 0.00 0.00 0.00 59 1016.4
20260504231445 75 253 5.2 6.1 0.00 0.00 0.00 57 1016.4
20260504230941 74 281 1.7 3.5 0.00 0.00 0.00 59 1016.3
20260504230438 72 253 2.6 7.0 0.00 0.00 0.00 61 1016.6
20260504225937 74 210 1.7 7.0 0.00 0.00 0.00 60 1016.6
20260504225433 75 0 0.0 4.3 0.00 0.00 0.00 58 1016.6
20260504224931 75 346 2.6 4.3 0.00 0.00 0.00 58 1016.9
20260504224427 73 173 4.3 6.1 0.00 0.00 0.00 61 1016.9
20260504223925 73 98 2.6 7.8 0.00 0.00 0.00 60 1017.1
20260504223420 73 283 0.0 6.1 0.00 0.00 0.00 62 1017.2
20260504222916 73 147 4.3 5.2 0.00 0.00 0.00 60 1017.2
20260504222414 75 200 2.6 2.6 0.00 0.00 0.00 59 1017.1
20260504221911 72 203 2.6 4.3 0.00 0.00 0.00 61 1017.2
20260504221408 72 315 1.7 7.0 0.00 0.00 0.00 61 1017.4
20260504220905 73 276 4.3 4.3 0.00 0.00 0.00 61 1017.4
20260504220401 71 72 4.3 5.2 0.00 0.00 0.00 63 1017.4
20260504215859 71 109 6.1 7.0 0.00 0.00 0.00 63 1017.1
20260504215355 72 127 1.7 6.1 0.00 0.00 0.00 62 1017.2
20260504214852 70 130 5.2 7.8 0.00 0.00 0.00 63 1017.4
20260504214348 71 214 2.6 7.8 0.00 0.00 0.00 65 1017.2
20260504213845 69 151 3.5 7.0 0.00 0.00 0.00 65 1017.4
20260504213341 69 118 6.1 8.7 0.00 0.00 0.00 64 1017.3
20260504212838 71 93 2.6 7.0 0.00 0.00 0.00 64 1017.4
20260504212334 69 256 2.6 7.0 0.00 0.00 0.00 64 1017.4
20260504211832 69 175 2.6 4.3 0.00 0.00 0.00 65 1017.6
20260504211328 69 90 3.5 11.3 0.00 0.00 0.00 66 1017.7
20260504210826 71 144 2.6 7.8 0.00 0.00 0.00 62 1017.7
20260504210322 70 220 4.3 4.3 0.00 0.00 0.00 63 1017.6
20260504205820 68 90 2.6 6.1 0.00 0.00 0.00 66 1017.9
20260504205318 68 126 2.6 6.1 0.00 0.00 0.00 68 1017.9
20260504204815 70 90 2.6 3.5 0.00 0.00 0.00 63 1018.1
20260504204314 68 90 2.6 4.3 0.00 0.00 0.00 66 1017.8
20260504203813 67 253 6.1 7.0 0.00 0.00 0.00 67 1017.6
20260504203309 67 138 2.6 7.0 0.00 0.00 0.00 68 1017.7
20260504202804 66 212 2.6 7.8 0.00 0.00 0.00 70 1017.8
20260504202304 67 327 4.3 8.7 0.00 0.00 0.00 69 1018.0
20260504201759 66 122 3.5 5.2 0.00 0.00 0.00 70 1018.3
20260504201256 66 226 3.5 5.2 0.00 0.00 0.00 69 1018.0
20260504200754 65 187 2.6 7.0 0.00 0.00 0.00 72 1017.8
20260504200249 65 257 1.7 9.6 0.00 0.00 0.00 72 1018.1
20260504195746 67 135 3.5 5.2 0.00 0.00 0.00 69 1018.1
20260504195242 67 155 7.0 7.0 0.00 0.00 0.00 70 1017.8
20260504194739 64 192 4.3 7.8 0.00 0.00 0.00 72 1017.9
20260504194235 63 258 1.7 6.1 0.00 0.00 0.00 73 1018.2
20260504193731 65 145 5.2 7.8 0.00 0.00 0.00 74 1018.4
20260504193229 64 201 0.0 8.7 0.00 0.00 0.00 73 1018.6
20260504192727 64 86 5.2 7.8 0.00 0.00 0.00 74 1018.4
20260504192225 63 180 1.7 7.0 0.00 0.00 0.00 74 1018.9
20260504191724 64 113 1.7 6.1 0.00 0.00 0.00 74 1018.6
20260504191220 63 94 4.3 9.6 0.00 0.00 0.00 75 1018.7
20260504190715 64 138 4.3 11.3 0.00 0.00 0.00 74 1018.8
20260504190212 64 121 3.5 9.6 0.00 0.00 0.00 74 1018.9
20260504185709 62 121 5.2 7.8 0.00 0.00 0.00 76 1018.9
20260504185205 62 122 7.8 10.4 0.00 0.00 0.00 77 1018.7
20260504184701 63 128 7.0 7.0 0.00 0.00 0.00 74 1018.6
20260504184156 63 312 1.7 7.8 0.00 0.00 0.00 75 1018.6
20260504183653 64 106 5.2 7.8 0.00 0.00 0.00 73 1018.7
20260504183151 62 99 4.3 4.3 0.00 0.00 0.00 77 1018.9
20260504182648 62 77 3.5 7.8 0.00 0.00 0.00 78 1018.5
20260504182146 62 153 5.2 8.7 0.00 0.00 0.00 76 1018.4
20260504181644 60 113 4.3 8.7 0.00 0.00 0.00 80 1018.4
20260504181141 60 136 7.0 8.7 0.00 0.00 0.00 79 1018.4
20260504180640 62 229 2.6 7.0 0.00 0.00 0.00 76 1018.8
20260504180138 61 137 3.5 5.2 0.00 0.00 0.00 78 1018.5
20260504175635 60 203 3.5 6.1 0.00 0.00 0.00 78 1018.5
20260504175131 60 110 1.7 7.8 0.00 0.00 0.00 79 1018.4
20260504174630 60 150 2.6 9.6 0.00 0.00 0.00 80 1018.3
20260504174126 60 241 10.4 10.4 0.00 0.00 0.00 78 1018.5
20260504173623 60 196 4.3 8.7 0.00 0.00 0.00 80 1018.6
20260504173121 60 128 2.6 4.3 0.00 0.00 0.00 81 1018.7
20260504172617 59 174 0.9 10.4 0.00 0.00 0.00 82 1018.7
20260504172114 59 153 2.6 6.1 0.00 0.00 0.00 81 1019.0
20260504171610 59 100 2.6 9.6 0.00 0.00 0.00 82 1019.3
20260504171108 59 98 7.0 9.6 0.00 0.00 0.00 80 1019.1
20260504170603 59 107 7.0 9.6 0.00 0.00 0.00 81 1019.0
20260504150947 59 139 4.3 9.6 0.00 0.00 0.00 82 1017.7
20260504150443 59 102 1.7 4.3 0.00 0.00 0.00 82 1017.8
20260504140910 57 124 3.5 10.4 0.00 0.00 0.00 85 1016.7
20260504140406 57 139 6.1 8.7 0.00 0.00 0.00 85 1016.7
20260504130331 56 110 4.3 6.1 0.00 0.00 0.00 87 1015.6